Regional Weather Roundup
Issued by NWS

Home | Current Version | Previous Version | Text Only | Print | Product List | Glossary Off
Versions: 1 2 3 4 5 6 7 8 9 10 11 12 13 14 15 16 17 18 19 20 21 22 23 24 25 26 27 28 29 30 31 32 33 34 35 36 37 38 39 40 41 42 43 44 45 46 47 48 49 50

000
ASUS45 KCYS 271510
RWRWY

WYOMING REGIONAL WEATHER ROUNDUP
NATIONAL WEATHER SERVICE CHEYENNE WY
900 AM MDT SUN JUL 27 2014

NOTE:  "FAIR" INDICATES FEW OR NO CLOUDS BELOW 12,000 FEET
WITH NO SIGNIFICANT WEATHER AND/OR OBSTRUCTIONS TO VISIBILITY.

WYZ001-271600-
YELLOWSTONE NATIONAL PARK

CITY           SKY/WX    TMP DP  RH WIND       PRES   REMARKS
LK YELLOWSTONE   N/A     54  42  64 SE3       30.54R
W YELLOWSTONE  NOT AVBL

$$
WYZ002>013-054>058-071-098>099-271600-
NORTHERN WYOMING

CITY           SKY/WX    TMP DP  RH WIND       PRES   REMARKS
JACKSON        NOT AVBL
CODY           NOT AVBL
GREYBULL       SUNNY     66  38  35 CALM      30.33R
WORLAND        SUNNY     68  32  26 CALM      30.34S
SHERIDAN       SUNNY     65  44  46 NE6       30.36R
BUFFALO        SUNNY     67  39  35 CALM      30.41R
GILLETTE       SUNNY     68  45  43 VRB5      30.37R
HULETT         FAIR      64  46  52 MISG      30.38
NEWCASTLE      FAIR      64  36  34 CALM      30.37

$$
WYZ014>020-022>026-101>103-271600-
CENTRAL WYOMING

CITY           SKY/WX    TMP DP  RH WIND       PRES   REMARKS
BIG PINEY      SUNNY     59  24  26 E3        30.48S
PINEDALE       SUNNY     59  34  38 CALM      30.49R
DUBOIS         FAIR      55  30  38 NW3       30.51S
LANDER         SUNNY     67  37  33 N8        30.40S
RIVERTON       SUNNY     66  37  34 SE3       30.41R
CASPER         SUNNY     65  39  38 CALM      30.40R
DOUGLAS        SUNNY     70  42  36 S8        30.40R

$$
WYZ021-027>030-104>119-271600-
SOUTHERN WYOMING

CITY           SKY/WX    TMP DP  RH WIND       PRES   REMARKS
EVANSTON       SUNNY     66  31  27 E6        30.44R
KEMMERER       SUNNY     64  30  27 N10       30.47R
FORT BRIDGER   FAIR      65  26  22 N5        30.47S
ROCK SPRINGS   SUNNY     66  33  29 E6        30.44R
DIXON          FAIR      63  46  52 SE3       30.45R
RAWLINS        SUNNY     65  42  43 E9        30.45R
SARATOGA       FAIR      61  45  55 N3        30.45S
LARAMIE        SUNNY     63  52  67 S7        30.47R
CHEYENNE       CLOUDY    62  59  90 NE7       30.44R
TORRINGTON     MOSUNNY   67  46  47 CALM      30.35R
PINE BLUFFS    CLOUDY    64  50  59 E7        30.40R

$$



USA.gov is the U.S. government's official web portal to all federal, state and local government web resources and services.